Location: Kunchanapalle
(16.4623°N, 80.6176°E)
Time: 09:40:49
(UTC+00:00)

Yuri Rocket - Pass Details

Date: 13 August 2020
Orbit: 568 x 1914 km, 28.2° (Epoch: 18 September)

Event Time Altitude Azimuth Distance (km) Brightness Sun altitude
Rises 13:17:30 0° 255° (WSW) 3,468 8.0 -4.1°
Reaches altitude 10° 13:20:25 10° 259° (W) 2,338 7.2 -4.8°
Maximum altitude 13:25:37 55° 337° (NNW) 779 3.9 -6.0°
Drops below altitude 10° 13:29:49 10° 56° (NE) 1,902 5.2 -6.9°
Sets 13:31:59 0° 61° (ENE) 2,759 6.0 -7.4°
